Total_Precipitation_Accumulation
0.01 0.00 0.01 0.02 0.05 0.06 0.06 0.07 0.10 0.12 0.11 0.10 0.10 0.10 0.11 0.10 0.08 0.07 0.06 0.08 0.12 0.18 0.21 0.21 0.17 0.13 0.11 0.09 0.05 0.04 0.04 0.05 0.07 0.09 0.12 0.14 0.15 0.15 0.15 0.16 0.18 0.20 0.10
0.01 0.00 0.01 0.01 0.03 0.05 0.06 0.08 0.09 0.11 0.12 0.12 0.13 0.14 0.14 0.10 0.07 0.07 0.07 0.09 0.14 0.18 0.18 0.17 0.14 0.10 0.09 0.06 0.03 0.02 0.03 0.05 0.09 0.14 0.18 0.20 0.24 0.20 0.19 0.18 0.22 0.28 0.18
0.01 0.00 0.01 0.01 0.01 0.04 0.05 0.08 0.08 0.08 0.10 0.11 0.12 0.12 0.10 0.08 0.07 0.06 0.06 0.09 0.12 0.14 0.12 0.08 0.05 0.04 0.04 0.02 0.01 0.02 0.03 0.06 0.12 0.21 0.39 0.33 0.29 0.20 0.20 0.18 0.16 0.14 0.17
0.01 0.00 0.00 0.01 0.02 0.03 0.04 0.06 0.09 0.09 0.09 0.09 0.09 0.09 0.08 0.07 0.07 0.06 0.07 0.09 0.10 0.09 0.06 0.03 0.02 0.01 0.01 0.01 0.01 0.02 0.04 0.08 0.16 0.33 0.58 0.48 0.36 0.25 0.22 0.21 0.17 0.14 0.16
0.01 0.01 0.02 0.01 0.03 0.04 0.04 0.04 0.07 0.10 0.10 0.09 0.09 0.09 0.10 0.09 0.08 0.07 0.08 0.09 0.09 0.08 0.08 0.07 0.05 0.02 0.01 0.01 0.02 0.03 0.06 0.11 0.21 0.43 0.77 0.75 0.59 0.43 0.30 0.27 0.28 0.22 0.20
0.01 0.00 0.01 0.02 0.03 0.06 0.06 0.05 0.06 0.08 0.10 0.12 0.12 0.12 0.11 0.11 0.09 0.07 0.08 0.09 0.08 0.09 0.12 0.13 0.09 0.03 0.02 0.02 0.02 0.05 0.09 0.15 0.27 0.51 0.93 1.01 0.66 0.41 0.32 0.32 0.32 0.27 0.22
0.02 0.01 0.01 0.04 0.05 0.06 0.07 0.08 0.08 0.07 0.09 0.13 0.14 0.11 0.10 0.10 0.09 0.09 0.09 0.08 0.09 0.12 0.14 0.11 0.06 0.02 0.01 0.02 0.04 0.07 0.12 0.20 0.33 0.71 1.03 0.91 0.73 0.42 0.34 0.34 0.34 0.28 0.21
0.05 0.03 0.03 0.05 0.05 0.07 0.10 0.11 0.13 0.13 0.12 0.14 0.14 0.11 0.10 0.08 0.08 0.10 0.09 0.09 0.12 0.16 0.15 0.07 0.01 0.00 0.01 0.01 0.03 0.07 0.14 0.19 0.28 0.69 1.01 0.72 0.54 0.34 0.28 0.29 0.28 0.24 0.20
0.05 0.03 0.03 0.03 0.05 0.08 0.11 0.11 0.13 0.15 0.14 0.13 0.12 0.12 0.13 0.13 0.13 0.13 0.12 0.11 0.14 0.15 0.10 0.03 0.01 0.01 0.01 0.01 0.02 0.05 0.10 0.16 0.30 0.47 0.51 0.42 0.37 0.24 0.17 0.15 0.13 0.12 0.11
0.05 0.03 0.02 0.03 0.05 0.05 0.04 0.07 0.09 0.13 0.16 0.12 0.09 0.11 0.12 0.12 0.11 0.11 0.09 0.10 0.11 0.10 0.07 0.03 0.02 0.01 0.01 0.01 0.01 0.03 0.07 0.12 0.20 0.34 0.46 0.32 0.21 0.16 0.16 0.13 0.08 0.05 0.05
0.10 0.07 0.03 0.03 0.06 0.06 0.03 0.03 0.05 0.09 0.11 0.08 0.05 0.06 0.07 0.16 0.20 0.17 0.11 0.09 0.08 0.08 0.06 0.04 0.03 0.01 0.01 0.00 0.01 0.02 0.03 0.07 0.19 0.38 0.49 0.34 0.21 0.18 0.14 0.11 0.06 0.04 0.03
0.12 0.09 0.07 0.06 0.05 0.09 0.04 0.03 0.03 0.02 0.03 0.04 0.09 0.06 0.12 0.28 0.33 0.25 0.20 0.12 0.09 0.08 0.06 0.05 0.04 0.03 0.01 0.01 0.01 0.01 0.01 0.05 0.19 0.36 0.33 0.23 0.21 0.20 0.17 0.12 0.07 0.04 0.03
0.17 0.09 0.09 0.10 0.10 0.18 0.07 0.06 0.06 0.06 0.10 0.12 0.18 0.17 0.23 0.28 0.25 0.28 0.31 0.18 0.13 0.10 0.10 0.08 0.04 0.03 0.02 0.02 0.02 0.02 0.03 0.06 0.11 0.19 0.19 0.18 0.21 0.23 0.22 0.17 0.12 0.07 0.05
0.22 0.12 0.10 0.11 0.11 0.12 0.11 0.12 0.09 0.07 0.09 0.12 0.19 0.15 0.25 0.31 0.32 0.33 0.35 0.28 0.25 0.23 0.20 0.13 0.09 0.08 0.05 0.05 0.04 0.04 0.04 0.05 0.07 0.10 0.15 0.20 0.24 0.29 0.30 0.27 0.20 0.14 0.11
0.24 0.16 0.10 0.09 0.10 0.13 0.20 0.18 0.13 0.10 0.09 0.11 0.16 0.16 0.19 0.24 0.29 0.33 0.32 0.31 0.29 0.30 0.27 0.17 0.15 0.15 0.10 0.11 0.09 0.08 0.10 0.07 0.08 0.10 0.16 0.23 0.27 0.32 0.38 0.36 0.28 0.21 0.18
0.25 0.23 0.20 0.12 0.11 0.13 0.16 0.15 0.12 0.11 0.14 0.15 0.17 0.19 0.20 0.27 0.37 0.39 0.38 0.41 0.41 0.41 0.45 0.36 0.31 0.30 0.22 0.20 0.18 0.19 0.18 0.16 0.16 0.17 0.21 0.25 0.28 0.32 0.41 0.45 0.40 0.35 0.32
0.33 0.31 0.32 0.26 0.21 0.21 0.22 0.19 0.16 0.13 0.13 0.16 0.22 0.28 0.23 0.27 0.42 0.44 0.50 0.55 0.56 0.53 0.55 0.51 0.49 0.48 0.44 0.39 0.36 0.31 0.27 0.27 0.27 0.29 0.33 0.37 0.36 0.37 0.40 0.42 0.45 0.44 0.41
0.36 0.37 0.33 0.31 0.30 0.34 0.34 0.31 0.26 0.21 0.22 0.22 0.24 0.31 0.30 0.33 0.40 0.50 0.56 0.66 0.69 0.67 0.69 0.69 0.68 0.62 0.57 0.52 0.51 0.47 0.41 0.38 0.34 0.38 0.45 0.52 0.54 0.50 0.47 0.45 0.45 0.46 0.46
0.36 0.43 0.45 0.46 0.49 0.48 0.46 0.47 0.46 0.34 0.30 0.38 0.42 0.45 0.53 0.59 0.60 0.67 0.76 0.87 0.90 0.95 0.95 0.90 0.88 0.77 0.75 0.73 0.66 0.57 0.47 0.43 0.45 0.42 0.46 0.49 0.49 0.50 0.49 0.48 0.47 0.45 0.48
0.47 0.53 0.56 0.61 0.69 0.72 0.73 0.70 0.66 0.61 0.57 0.64 0.71 0.76 0.80 0.90 1.01 1.14 1.21 1.25 1.22 1.22 1.16 1.14 1.09 0.97 0.85 0.81 0.64 0.54 0.50 0.48 0.48 0.46 0.42 0.39 0.38 0.35 0.36 0.36 0.39 0.40 0.47
0.78 0.78 0.76 0.72 0.78 0.88 1.05 1.18 1.20 1.27 1.27 1.26 1.33 1.44 1.63 1.77 1.84 1.86 1.88 1.79 1.65 1.53 1.43 1.31 1.14 1.00 0.89 0.80 0.74 0.61 0.47 0.39 0.37 0.35 0.34 0.36 0.37 0.36 0.34 0.35 0.35 0.34 0.39
1.02 1.02 1.06 1.09 1.22 1.39 1.64 1.86 2.03 2.18 2.27 2.28 2.29 2.40 2.52 2.64 2.72 2.72 2.64 2.52 2.35 2.05 1.65 1.34 1.17 1.06 0.95 0.88 0.84 0.77 0.56 0.39 0.29 0.24 0.26 0.28 0.31 0.33 0.33 0.33 0.31 0.32 0.33
1.31 1.35 1.42 1.56 1.85 2.20 2.50 2.80 3.03 3.27 3.37 3.27 3.10 3.10 3.19 3.23 3.26 3.30 3.21 2.92 2.48 1.99 1.58 1.35 1.27 1.16 1.02 0.92 0.84 0.81 0.71 0.57 0.38 0.25 0.21 0.20 0.21 0.21 0.22 0.25 0.26 0.28 0.30
1.44 1.56 1.65 1.86 2.25 2.63 2.99 3.41 3.74 3.91 4.06 4.16 4.02 3.84 3.63 3.42 3.32 3.18 2.96 2.51 2.07 1.71 1.47 1.37 1.23 1.04 0.93 0.79 0.69 0.62 0.57 0.51 0.44 0.33 0.23 0.17 0.14 0.13 0.14 0.16 0.17 0.19 0.22
1.44 1.46 1.54 1.87 2.36 2.99 3.60 4.01 4.27 4.46 4.54 4.47 4.20 3.89 3.54 3.17 2.76 2.45 2.15 1.84 1.65 1.44 1.21 1.03 0.89 0.74 0.63 0.53 0.46 0.42 0.38 0.33 0.30 0.28 0.24 0.18 0.17 0.15 0.15 0.16 0.16 0.18 0.19
1.18 1.37 1.58 1.90 2.52 3.19 3.67 4.05 4.31 4.47 4.37 4.16 3.81 3.33 3.01 2.67 2.24 1.87 1.64 1.41 1.21 1.01 0.81 0.63 0.51 0.44 0.40 0.37 0.34 0.31 0.27 0.26 0.24 0.26 0.27 0.22 0.19 0.18 0.17 0.17 0.18 0.20 0.21